Location: A�t Lahcen
(32.8243°N, 5.4246°W)
Time: 01:47:13
(UTC+00:00)

Cosmos 1758 Rocket - Pass Details

Date: 27 January 2021
Orbit: 602 x 636 km, 82.5° (Epoch: 27 February)

Event Time Altitude Azimuth Distance (km) Brightness Sun altitude
Rises 06:00:01 0° 356° (N) 2,930 6.9 -16.9°
Reaches altitude 10° 06:02:17 10° 359° (N) 2,014 6.1 -16.4°
Maximum altitude 06:06:44 70° 83° (E) 668 3.9 -15.5°
Drops below altitude 10° 06:11:07 10° 167° (SSE) 1,982 6.5 -14.6°
Sets 06:13:20 0° 170° (S) 2,878 7.3 -14.1°
